QPF
0.00 0.00 0.00 0.00 0.00 0.00 0.00 0.00 0.01 0.01 0.00 0.00 0.00 0.01 0.01 0.03 0.04 0.04 0.06 0.04 0.03 0.01 0.02 0.02 0.02 0.04 0.05 0.05 0.04 0.04 0.05 0.04 0.03 0.02 0.01 0.01 0.01 0.01 0.03 0.03 0.02 0.02 0.04 0.06
0.00 0.00 0.00 0.00 0.00 0.00 0.00 0.00 0.00 0.00 0.00 0.00 0.00 0.01 0.01 0.02 0.03 0.05 0.05 0.03 0.02 0.02 0.02 0.02 0.04 0.06 0.05 0.08 0.06 0.04 0.03 0.03 0.03 0.02 0.01 0.01 0.01 0.01 0.02 0.03 0.01 0.02 0.03 0.05
0.00 0.00 0.00 0.00 0.00 0.00 0.00 0.00 0.00 0.00 0.00 0.00 0.01 0.01 0.02 0.02 0.03 0.04 0.05 0.03 0.03 0.03 0.03 0.04 0.05 0.08 0.08 0.07 0.07 0.05 0.02 0.01 0.02 0.02 0.03 0.02 0.02 0.02 0.01 0.01 0.03 0.04 0.04 0.06
0.00 0.00 0.00 0.00 0.00 0.00 0.00 0.00 0.00 0.00 0.00 0.00 0.00 0.01 0.03 0.03 0.04 0.03 0.03 0.04 0.03 0.04 0.05 0.05 0.05 0.07 0.10 0.08 0.08 0.05 0.02 0.01 0.03 0.04 0.03 0.03 0.02 0.03 0.02 0.03 0.04 0.06 0.05 0.06
0.00 0.00 0.00 0.00 0.00 0.00 0.00 0.00 0.00 0.01 0.00 0.01 0.01 0.00 0.02 0.03 0.02 0.03 0.03 0.03 0.05 0.07 0.08 0.06 0.05 0.06 0.09 0.08 0.08 0.07 0.03 0.02 0.03 0.03 0.03 0.03 0.04 0.04 0.04 0.05 0.06 0.06 0.04 0.05
0.00 0.00 0.00 0.00 0.00 0.00 0.00 0.00 0.01 0.01 0.01 0.01 0.00 0.01 0.02 0.03 0.02 0.03 0.03 0.04 0.06 0.04 0.02 0.02 0.04 0.05 0.09 0.09 0.08 0.08 0.06 0.04 0.04 0.03 0.03 0.03 0.04 0.06 0.05 0.06 0.07 0.06 0.04 0.04
0.01 0.02 0.01 0.00 0.00 0.00 0.00 0.01 0.01 0.01 0.01 0.01 0.00 0.01 0.03 0.03 0.04 0.03 0.02 0.02 0.02 0.02 0.01 0.01 0.04 0.06 0.12 0.12 0.10 0.07 0.06 0.04 0.04 0.04 0.05 0.04 0.04 0.05 0.05 0.06 0.06 0.06 0.05 0.04
0.01 0.01 0.01 0.01 0.01 0.00 0.00 0.00 0.01 0.01 0.01 0.01 0.01 0.02 0.06 0.06 0.04 0.02 0.02 0.03 0.03 0.02 0.01 0.01 0.03 0.04 0.07 0.08 0.10 0.08 0.05 0.05 0.05 0.04 0.04 0.04 0.04 0.04 0.04 0.04 0.04 0.05 0.04 0.04
0.02 0.01 0.00 0.00 0.01 0.01 0.00 0.00 0.00 0.01 0.01 0.01 0.01 0.05 0.09 0.08 0.04 0.02 0.02 0.06 0.06 0.03 0.02 0.02 0.03 0.05 0.06 0.08 0.11 0.10 0.07 0.08 0.09 0.12 0.11 0.08 0.05 0.06 0.07 0.06 0.04 0.04 0.04 0.04
0.02 0.02 0.01 0.00 0.00 0.00 0.00 0.01 0.01 0.02 0.02 0.02 0.02 0.07 0.11 0.08 0.06 0.04 0.04 0.06 0.06 0.05 0.04 0.03 0.04 0.06 0.08 0.08 0.09 0.13 0.10 0.07 0.08 0.10 0.09 0.07 0.07 0.08 0.08 0.08 0.05 0.03 0.02 0.02
0.02 0.03 0.01 0.01 0.01 0.01 0.01 0.01 0.01 0.03 0.04 0.04 0.05 0.07 0.08 0.06 0.04 0.04 0.05 0.06 0.07 0.05 0.05 0.05 0.06 0.07 0.09 0.11 0.12 0.16 0.15 0.10 0.07 0.07 0.07 0.06 0.05 0.06 0.07 0.08 0.06 0.04 0.02 0.01
0.01 0.02 0.02 0.01 0.02 0.02 0.02 0.02 0.02 0.04 0.03 0.05 0.05 0.07 0.06 0.07 0.05 0.04 0.04 0.04 0.03 0.03 0.05 0.08 0.11 0.11 0.11 0.16 0.18 0.12 0.13 0.14 0.11 0.09 0.07 0.06 0.04 0.04 0.04 0.04 0.03 0.03 0.03 0.01
0.00 0.01 0.03 0.01 0.02 0.03 0.01 0.01 0.02 0.04 0.03 0.04 0.05 0.07 0.06 0.05 0.06 0.06 0.06 0.04 0.03 0.04 0.08 0.10 0.08 0.06 0.06 0.09 0.10 0.08 0.06 0.07 0.08 0.06 0.06 0.05 0.04 0.04 0.04 0.03 0.03 0.03 0.02 0.02
0.01 0.01 0.03 0.02 0.01 0.02 0.02 0.01 0.03 0.04 0.04 0.03 0.04 0.04 0.05 0.04 0.06 0.07 0.05 0.03 0.03 0.04 0.05 0.04 0.05 0.06 0.05 0.06 0.06 0.08 0.07 0.07 0.08 0.06 0.05 0.04 0.04 0.04 0.03 0.02 0.02 0.03 0.03 0.03
0.01 0.01 0.02 0.03 0.02 0.02 0.02 0.03 0.05 0.04 0.04 0.05 0.04 0.03 0.03 0.03 0.04 0.06 0.05 0.03 0.02 0.02 0.02 0.02 0.04 0.07 0.06 0.06 0.05 0.05 0.06 0.04 0.05 0.06 0.05 0.04 0.03 0.04 0.04 0.02 0.02 0.03 0.03 0.02
0.01 0.01 0.02 0.04 0.03 0.02 0.02 0.02 0.03 0.05 0.05 0.04 0.03 0.04 0.04 0.04 0.05 0.07 0.06 0.03 0.02 0.02 0.02 0.02 0.03 0.03 0.04 0.05 0.05 0.03 0.02 0.02 0.04 0.05 0.04 0.04 0.03 0.02 0.02 0.02 0.03 0.04 0.04 0.04
0.02 0.02 0.03 0.04 0.04 0.03 0.02 0.02 0.03 0.03 0.03 0.03 0.03 0.04 0.04 0.06 0.06 0.06 0.05 0.04 0.03 0.02 0.02 0.02 0.02 0.02 0.03 0.04 0.05 0.04 0.02 0.01 0.02 0.04 0.07 0.08 0.05 0.03 0.02 0.03 0.03 0.03 0.04 0.06
0.03 0.03 0.03 0.05 0.07 0.05 0.03 0.03 0.03 0.03 0.03 0.04 0.03 0.04 0.05 0.05 0.06 0.06 0.07 0.06 0.04 0.03 0.02 0.02 0.02 0.02 0.03 0.04 0.05 0.05 0.02 0.02 0.02 0.02 0.04 0.07 0.06 0.03 0.03 0.04 0.05 0.05 0.06 0.07
0.02 0.03 0.04 0.06 0.06 0.05 0.04 0.03 0.03 0.04 0.04 0.05 0.05 0.05 0.05 0.04 0.05 0.06 0.07 0.05 0.04 0.03 0.03 0.02 0.02 0.03 0.04 0.05 0.05 0.05 0.03 0.03 0.03 0.02 0.01 0.01 0.03 0.04 0.06 0.07 0.07 0.07 0.07 0.06
0.03 0.03 0.03 0.06 0.06 0.06 0.05 0.03 0.03 0.04 0.05 0.05 0.05 0.07 0.05 0.04 0.06 0.07 0.06 0.04 0.03 0.02 0.02 0.02 0.02 0.03 0.05 0.06 0.07 0.07 0.05 0.03 0.03 0.02 0.01 0.02 0.03 0.04 0.06 0.07 0.08 0.07 0.06 0.06
0.02 0.02 0.03 0.05 0.05 0.04 0.03 0.02 0.04 0.06 0.07 0.05 0.05 0.05 0.04 0.06 0.06 0.07 0.06 0.03 0.03 0.02 0.02 0.02 0.03 0.04 0.06 0.08 0.11 0.10 0.07 0.05 0.03 0.03 0.03 0.05 0.05 0.06 0.08 0.10 0.09 0.07 0.05 0.04
0.02 0.03 0.04 0.03 0.03 0.04 0.03 0.02 0.05 0.07 0.05 0.02 0.02 0.02 0.03 0.04 0.03 0.06 0.09 0.05 0.03 0.02 0.02 0.03 0.04 0.04 0.06 0.09 0.13 0.13 0.10 0.06 0.03 0.03 0.04 0.05 0.03 0.03 0.05 0.10 0.15 0.11 0.06 0.03
0.02 0.03 0.05 0.05 0.05 0.03 0.02 0.03 0.04 0.04 0.03 0.03 0.02 0.01 0.02 0.04 0.05 0.07 0.11 0.07 0.04 0.03 0.03 0.03 0.03 0.03 0.04 0.05 0.07 0.09 0.07 0.06 0.03 0.02 0.02 0.02 0.01 0.02 0.03 0.08 0.11 0.08 0.05 0.03
0.02 0.02 0.03 0.03 0.02 0.01 0.02 0.04 0.05 0.05 0.05 0.05 0.03 0.03 0.03 0.04 0.06 0.07 0.11 0.08 0.04 0.03 0.03 0.04 0.03 0.04 0.04 0.04 0.05 0.05 0.05 0.04 0.03 0.02 0.02 0.02 0.01 0.01 0.03 0.06 0.12 0.05 0.02 0.03
0.02 0.02 0.02 0.02 0.02 0.02 0.03 0.05 0.05 0.05 0.09 0.10 0.06 0.05 0.04 0.05 0.07 0.08 0.09 0.08 0.05 0.04 0.05 0.05 0.06 0.06 0.04 0.04 0.05 0.04 0.03 0.03 0.02 0.02 0.02 0.02 0.02 0.03 0.03 0.06 0.10 0.07 0.03 0.03
0.02 0.02 0.03 0.03 0.03 0.04 0.04 0.04 0.03 0.04 0.08 0.09 0.06 0.05 0.04 0.05 0.06 0.08 0.09 0.08 0.05 0.04 0.05 0.07 0.08 0.05 0.04 0.05 0.06 0.06 0.04 0.03 0.02 0.02 0.01 0.01 0.02 0.03 0.03 0.04 0.03 0.03 0.03 0.03
MSLP
1009.38 1010.31 1010.94 1011.27 1011.34 1011.20 1010.94 1010.63 1010.30 1009.97 1009.63 1009.26 1008.86 1008.42 1007.97 1007.55 1007.23 1007.05 1007.06 1007.25 1007.61 1008.08 1008.58 1009.03 1009.36 1009.53 1009.54 1009.40 1009.16 1008.88 1008.63 1008.47 1008.43 1008.51 1008.71 1009.00 1009.36 1009.76 1010.16 1010.58 1010.99 1011.43 1011.89 1012.39
1009.47 1010.21 1010.67 1010.87 1010.90 1010.82 1010.72 1010.63 1010.57 1010.50 1010.37 1010.13 1009.75 1009.23 1008.62 1007.99 1007.44 1007.06 1006.91 1007.02 1007.37 1007.88 1008.47 1009.03 1009.46 1009.70 1009.74 1009.60 1009.33 1009.02 1008.74 1008.56 1008.51 1008.60 1008.82 1009.14 1009.50 1009.89 1010.27 1010.64 1011.02 1011.41 1011.84 1012.32
1009.32 1009.85 1010.14 1010.25 1010.27 1010.30 1010.40 1010.59 1010.83 1011.04 1011.14 1011.03 1010.67 1010.07 1009.29 1008.43 1007.63 1007.03 1006.71 1006.71 1007.02 1007.57 1008.24 1008.90 1009.44 1009.78 1009.89 1009.79 1009.54 1009.23 1008.95 1008.77 1008.72 1008.83 1009.07 1009.40 1009.78 1010.17 1010.54 1010.89 1011.23 1011.59 1011.99 1012.44
1008.93 1009.27 1009.40 1009.44 1009.50 1009.67 1010.01 1010.50 1011.06 1011.56 1011.88 1011.90 1011.56 1010.88 1009.93 1008.85 1007.81 1006.98 1006.47 1006.35 1006.61 1007.17 1007.91 1008.67 1009.32 1009.77 1009.97 1009.95 1009.76 1009.49 1009.23 1009.07 1009.04 1009.17 1009.43 1009.78 1010.17 1010.56 1010.93 1011.28 1011.60 1011.94 1012.31 1012.73
1008.36 1008.51 1008.52 1008.52 1008.65 1008.99 1009.57 1010.35 1011.21 1011.98 1012.50 1012.65 1012.33 1011.58 1010.49 1009.21 1007.96 1006.92 1006.24 1006.00 1006.20 1006.75 1007.54 1008.38 1009.13 1009.69 1010.00 1010.07 1009.95 1009.74 1009.53 1009.40 1009.41 1009.56 1009.84 1010.21 1010.62 1011.03 1011.40 1011.75 1012.07 1012.40 1012.74 1013.12
1007.66 1007.65 1007.57 1007.56 1007.77 1008.27 1009.08 1010.12 1011.23 1012.23 1012.93 1013.17 1012.88 1012.08 1010.89 1009.47 1008.05 1006.86 1006.05 1005.71 1005.85 1006.39 1007.19 1008.08 1008.91 1009.56 1009.96 1010.12 1010.09 1009.95 1009.79 1009.71 1009.75 1009.93 1010.23 1010.62 1011.05 1011.47 1011.86 1012.22 1012.54 1012.86 1013.18 1013.53
1006.90 1006.77 1006.63 1006.63 1006.92 1007.56 1008.54 1009.77 1011.07 1012.24 1013.05 1013.37 1013.11 1012.30 1011.06 1009.57 1008.08 1006.80 1005.92 1005.52 1005.62 1006.14 1006.94 1007.85 1008.72 1009.42 1009.89 1010.12 1010.15 1010.08 1009.98 1009.95 1010.02 1010.23 1010.55 1010.95 1011.39 1011.82 1012.23 1012.59 1012.92 1013.23 1013.54 1013.85
1006.15 1005.93 1005.75 1005.78 1006.13 1006.86 1007.96 1009.30 1010.70 1011.94 1012.82 1013.18 1012.96 1012.18 1010.96 1009.49 1008.02 1006.76 1005.88 1005.48 1005.56 1006.06 1006.84 1007.74 1008.61 1009.32 1009.81 1010.08 1010.16 1010.13 1010.09 1010.09 1010.20 1010.43 1010.76 1011.17 1011.61 1012.04 1012.44 1012.80 1013.12 1013.42 1013.71 1014.00
1005.45 1005.19 1005.00 1005.05 1005.44 1006.21 1007.34 1008.70 1010.10 1011.35 1012.23 1012.62 1012.44 1011.73 1010.60 1009.25 1007.89 1006.74 1005.95 1005.60 1005.71 1006.19 1006.94 1007.79 1008.61 1009.28 1009.76 1010.03 1010.13 1010.14 1010.13 1010.17 1010.30 1010.54 1010.88 1011.27 1011.69 1012.10 1012.47 1012.81 1013.11 1013.39 1013.66 1013.93
1004.87 1004.59 1004.41 1004.48 1004.87 1005.64 1006.72 1008.02 1009.35 1010.52 1011.35 1011.73 1011.60 1011.00 1010.04 1008.89 1007.74 1006.78 1006.15 1005.92 1006.08 1006.56 1007.26 1008.03 1008.77 1009.36 1009.78 1010.02 1010.11 1010.13 1010.15 1010.21 1010.37 1010.61 1010.93 1011.29 1011.67 1012.03 1012.35 1012.64 1012.90 1013.14 1013.38 1013.63
1004.43 1004.18 1004.03 1004.11 1004.49 1005.20 1006.18 1007.34 1008.53 1009.57 1010.31 1010.67 1010.60 1010.14 1009.39 1008.49 1007.63 1006.93 1006.52 1006.44 1006.67 1007.16 1007.80 1008.48 1009.10 1009.59 1009.91 1010.09 1010.16 1010.18 1010.21 1010.30 1010.46 1010.70 1010.99 1011.31 1011.62 1011.90 1012.14 1012.35 1012.53 1012.71 1012.91 1013.12
1004.19 1003.97 1003.87 1003.97 1004.33 1004.96 1005.81 1006.80 1007.79 1008.66 1009.29 1009.61 1009.60 1009.29 1008.78 1008.18 1007.62 1007.22 1007.05 1007.14 1007.46 1007.95 1008.52 1009.09 1009.58 1009.95 1010.17 1010.29 1010.32 1010.34 1010.38 1010.48 1010.65 1010.87 1011.13 1011.38 1011.61 1011.79 1011.93 1012.02 1012.11 1012.20 1012.33 1012.50
1004.15 1004.00 1003.97 1004.10 1004.43 1004.98 1005.68 1006.48 1007.27 1007.96 1008.47 1008.74 1008.78 1008.62 1008.34 1008.03 1007.79 1007.68 1007.74 1007.99 1008.39 1008.88 1009.39 1009.84 1010.20 1010.44 1010.57 1010.61 1010.62 1010.63 1010.69 1010.80 1010.98 1011.19 1011.40 1011.59 1011.72 1011.78 1011.79 1011.76 1011.72 1011.71 1011.75 1011.85
1004.33 1004.28 1004.33 1004.51 1004.84 1005.31 1005.88 1006.50 1007.09 1007.60 1007.97 1008.19 1008.27 1008.24 1008.17 1008.11 1008.14 1008.29 1008.56 1008.95 1009.40 1009.88 1010.31 1010.66 1010.90 1011.03 1011.07 1011.06 1011.05 1011.07 1011.15 1011.29 1011.48 1011.67 1011.84 1011.95 1011.98 1011.93 1011.80 1011.64 1011.47 1011.34 1011.27 1011.29
1004.76 1004.82 1004.96 1005.21 1005.54 1005.96 1006.42 1006.88 1007.30 1007.64 1007.89 1008.05 1008.14 1008.20 1008.29 1008.44 1008.67 1009.02 1009.44 1009.93 1010.42 1010.87 1011.23 1011.48 1011.62 1011.67 1011.65 1011.62 1011.61 1011.66 1011.77 1011.94 1012.13 1012.31 1012.44 1012.49 1012.43 1012.27 1012.02 1011.73 1011.43 1011.18 1011.01 1010.93
1005.42 1005.60 1005.85 1006.17 1006.53 1006.92 1007.29 1007.62 1007.88 1008.07 1008.20 1008.30 1008.38 1008.49 1008.68 1008.96 1009.34 1009.81 1010.33 1010.86 1011.36 1011.78 1012.08 1012.26 1012.34 1012.33 1012.29 1012.26 1012.27 1012.35 1012.51 1012.70 1012.91 1013.09 1013.19 1013.18 1013.04 1012.79 1012.45 1012.05 1011.66 1011.30 1011.03 1010.86
1006.30 1006.60 1006.96 1007.35 1007.75 1008.11 1008.41 1008.63 1008.77 1008.84 1008.86 1008.87 1008.92 1009.04 1009.26 1009.61 1010.06 1010.59 1011.15 1011.70 1012.18 1012.56 1012.82 1012.96 1012.99 1012.97 1012.94 1012.94 1012.99 1013.12 1013.32 1013.55 1013.78 1013.95 1014.03 1013.98 1013.80 1013.48 1013.08 1012.62 1012.15 1011.72 1011.37 1011.11
1007.38 1007.79 1008.24 1008.69 1009.11 1009.45 1009.70 1009.83 1009.85 1009.81 1009.73 1009.66 1009.65 1009.74 1009.95 1010.30 1010.76 1011.29 1011.85 1012.38 1012.84 1013.19 1013.43 1013.55 1013.59 1013.59 1013.59 1013.64 1013.75 1013.93 1014.17 1014.43 1014.67 1014.84 1014.91 1014.84 1014.63 1014.30 1013.87 1013.38 1012.89 1012.43 1012.03 1011.72
1008.63 1009.11 1009.62 1010.11 1010.53 1010.84 1011.02 1011.07 1011.00 1010.86 1010.68 1010.53 1010.45 1010.49 1010.66 1010.97 1011.39 1011.89 1012.42 1012.91 1013.35 1013.68 1013.91 1014.05 1014.12 1014.17 1014.23 1014.34 1014.51 1014.74 1015.01 1015.29 1015.54 1015.71 1015.77 1015.70 1015.49 1015.17 1014.75 1014.29 1013.82 1013.37 1012.96 1012.61
1009.99 1010.51 1011.04 1011.53 1011.91 1012.17 1012.29 1012.26 1012.10 1011.87 1011.62 1011.39 1011.24 1011.22 1011.33 1011.58 1011.95 1012.39 1012.87 1013.33 1013.74 1014.07 1014.32 1014.50 1014.62 1014.73 1014.86 1015.03 1015.25 1015.52 1015.81 1016.10 1016.34 1016.50 1016.56 1016.50 1016.31 1016.03 1015.66 1015.26 1014.84 1014.44 1014.06 1013.71
1011.43 1011.95 1012.45 1012.88 1013.20 1013.38 1013.42 1013.31 1013.08 1012.78 1012.47 1012.18 1011.98 1011.90 1011.95 1012.14 1012.45 1012.84 1013.27 1013.69 1014.09 1014.43 1014.70 1014.93 1015.11 1015.29 1015.48 1015.70 1015.96 1016.24 1016.54 1016.81 1017.03 1017.18 1017.24 1017.19 1017.04 1016.81 1016.53 1016.20 1015.87 1015.54 1015.21 1014.90
1012.89 1013.36 1013.78 1014.12 1014.34 1014.43 1014.38 1014.20 1013.91 1013.57 1013.21 1012.89 1012.65 1012.53 1012.54 1012.68 1012.94 1013.28 1013.66 1014.07 1014.45 1014.80 1015.11 1015.38 1015.62 1015.85 1016.09 1016.34 1016.61 1016.89 1017.16 1017.40 1017.60 1017.72 1017.77 1017.74 1017.64 1017.48 1017.27 1017.05 1016.81 1016.57 1016.32 1016.05
1014.34 1014.71 1015.01 1015.23 1015.33 1015.31 1015.17 1014.92 1014.60 1014.23 1013.86 1013.54 1013.30 1013.16 1013.14 1013.25 1013.47 1013.77 1014.12 1014.50 1014.88 1015.24 1015.57 1015.88 1016.16 1016.42 1016.68 1016.94 1017.19 1017.44 1017.67 1017.86 1018.01 1018.11 1018.15 1018.14 1018.08 1017.99 1017.87 1017.74 1017.60 1017.45 1017.28 1017.07
1015.74 1015.97 1016.12 1016.19 1016.16 1016.03 1015.81 1015.52 1015.17 1014.81 1014.46 1014.16 1013.94 1013.81 1013.80 1013.89 1014.09 1014.36 1014.69 1015.04 1015.41 1015.77 1016.11 1016.43 1016.72 1016.99 1017.24 1017.48 1017.69 1017.89 1018.05 1018.19 1018.29 1018.35 1018.38 1018.38 1018.37 1018.34 1018.30 1018.27 1018.22 1018.15 1018.04 1017.89
1017.04 1017.11 1017.10 1017.01 1016.85 1016.62 1016.34 1016.02 1015.68 1015.35 1015.04 1014.79 1014.61 1014.52 1014.52 1014.62 1014.80 1015.05 1015.36 1015.70 1016.05 1016.39 1016.73 1017.03 1017.31 1017.56 1017.77 1017.96 1018.11 1018.24 1018.33 1018.40 1018.44 1018.47 1018.48 1018.50 1018.52 1018.55 1018.59 1018.62 1018.65 1018.66 1018.61 1018.50
1018.22 1018.12 1017.94 1017.71 1017.43 1017.12 1016.80 1016.47 1016.16 1015.87 1015.63 1015.44 1015.32 1015.27 1015.30 1015.41 1015.59 1015.83 1016.11 1016.43 1016.75 1017.08 1017.39 1017.67 1017.91 1018.11 1018.27 1018.39 1018.47 1018.51 1018.53 1018.52 1018.51 1018.51 1018.51 1018.54 1018.59 1018.67 1018.76 1018.86 1018.95 1019.01 1019.01 1018.94
Thickness
5760 5744 5735 5744 5751 5753 5753 5749 5749 5764 5784 5778 5771 5772 5781 5790 5790 5788 5786 5784 5784 5785 5789 5789 5789 5786 5782 5778 5775 5772 5769 5767 5764 5759 5754 5751 5748 5747 5746 5745 5743 5741 5739 5737
5739 5735 5752 5760 5761 5758 5753 5746 5749 5763 5781 5776 5765 5767 5780 5785 5786 5787 5785 5783 5783 5782 5782 5782 5782 5781 5778 5775 5772 5768 5766 5764 5761 5758 5754 5751 5747 5745 5743 5742 5740 5738 5736 5734
5731 5746 5762 5759 5754 5752 5752 5748 5752 5756 5769 5773 5764 5754 5764 5777 5783 5784 5784 5783 5782 5781 5778 5778 5776 5775 5774 5771 5769 5767 5763 5761 5758 5756 5752 5747 5743 5740 5737 5736 5734 5733 5732 5730
5738 5755 5758 5754 5753 5754 5743 5765 5765 5760 5748 5738 5750 5724 5746 5761 5766 5772 5774 5776 5776 5778 5776 5775 5774 5770 5769 5769 5768 5765 5761 5757 5754 5752 5748 5742 5737 5732 5732 5731 5730 5729 5727 5725
5738 5753 5752 5748 5758 5762 5756 5772 5765 5758 5744 5733 5738 5724 5732 5752 5752 5759 5767 5771 5773 5773 5771 5770 5769 5767 5765 5764 5763 5760 5756 5753 5750 5748 5745 5739 5734 5731 5729 5727 5725 5723 5723 5721
5746 5761 5760 5760 5770 5772 5770 5761 5753 5740 5726 5711 5728 5721 5721 5738 5750 5757 5762 5766 5768 5767 5767 5764 5763 5762 5760 5758 5756 5753 5749 5746 5745 5743 5740 5736 5731 5727 5724 5721 5719 5718 5717 5716
5732 5747 5761 5768 5756 5761 5756 5727 5703 5701 5692 5700 5727 5722 5722 5747 5757 5759 5757 5758 5761 5761 5760 5756 5754 5752 5751 5750 5748 5747 5744 5740 5739 5737 5735 5732 5729 5726 5722 5719 5716 5713 5711 5710
5710 5718 5748 5759 5753 5743 5742 5727 5698 5687 5685 5698 5719 5713 5725 5750 5758 5759 5757 5754 5753 5752 5751 5749 5747 5746 5744 5743 5742 5740 5738 5735 5733 5731 5729 5726 5724 5722 5719 5716 5713 5710 5708 5706
5707 5715 5749 5760 5764 5755 5738 5726 5727 5705 5701 5692 5699 5712 5727 5743 5745 5746 5745 5744 5743 5743 5743 5741 5740 5739 5737 5736 5735 5735 5733 5730 5728 5726 5724 5721 5719 5717 5714 5711 5709 5706 5704 5702
5719 5712 5734 5752 5758 5755 5748 5737 5713 5699 5686 5680 5692 5700 5706 5722 5727 5732 5733 5733 5735 5736 5736 5735 5733 5732 5730 5729 5729 5729 5727 5725 5723 5721 5718 5717 5714 5712 5709 5707 5704 5702 5700 5698
5720 5705 5717 5731 5730 5728 5733 5728 5714 5697 5693 5681 5675 5690 5725 5725 5728 5728 5729 5730 5729 5730 5729 5728 5726 5725 5724 5724 5723 5723 5721 5719 5716 5714 5712 5710 5708 5707 5704 5702 5700 5698 5695 5693
5714 5698 5694 5713 5734 5741 5731 5723 5709 5691 5688 5686 5678 5690 5731 5730 5731 5730 5728 5728 5725 5723 5723 5721 5719 5718 5717 5716 5715 5714 5713 5711 5710 5708 5705 5704 5703 5701 5698 5697 5695 5693 5690 5688
5709 5689 5677 5689 5704 5719 5720 5719 5712 5699 5688 5681 5676 5690 5721 5723 5722 5723 5722 5721 5719 5716 5715 5714 5713 5712 5711 5711 5709 5708 5707 5705 5703 5701 5699 5697 5696 5695 5693 5692 5690 5688 5685 5684
5711 5683 5675 5673 5683 5697 5703 5707 5709 5696 5678 5679 5686 5692 5703 5708 5710 5712 5713 5713 5711 5710 5710 5708 5707 5706 5705 5705 5703 5702 5700 5699 5698 5696 5694 5692 5691 5690 5688 5687 5686 5684 5682 5679
5696 5677 5682 5687 5697 5699 5697 5699 5702 5695 5689 5684 5689 5691 5698 5703 5707 5708 5707 5705 5705 5704 5704 5703 5701 5700 5700 5698 5697 5696 5695 5693 5692 5689 5688 5687 5687 5686 5684 5682 5681 5679 5678 5676
5680 5673 5675 5677 5688 5689 5687 5692 5697 5695 5694 5692 5691 5690 5702 5704 5703 5701 5700 5700 5698 5698 5699 5698 5698 5696 5694 5694 5692 5690 5689 5688 5686 5684 5683 5683 5682 5681 5679 5678 5676 5675 5673 5672
5667 5663 5658 5656 5672 5675 5666 5679 5685 5685 5688 5688 5682 5688 5695 5695 5695 5695 5695 5695 5694 5694 5693 5693 5692 5690 5689 5688 5687 5684 5683 5682 5680 5679 5678 5677 5676 5675 5674 5674 5672 5670 5669 5668
5660 5652 5644 5645 5653 5643 5662 5682 5685 5682 5682 5685 5686 5689 5691 5692 5694 5693 5692 5691 5690 5690 5688 5687 5686 5685 5683 5682 5680 5679 5677 5675 5673 5672 5671 5671 5671 5670 5670 5668 5667 5666 5665 5664
5662 5651 5638 5632 5633 5641 5659 5671 5673 5668 5667 5678 5679 5682 5685 5687 5685 5681 5685 5687 5687 5687 5684 5682 5681 5680 5677 5675 5674 5672 5670 5668 5667 5666 5665 5666 5665 5665 5664 5663 5662 5662 5661 5660
5654 5648 5635 5629 5627 5626 5646 5667 5675 5666 5653 5670 5673 5673 5675 5675 5664 5669 5679 5680 5680 5680 5678 5676 5674 5673 5670 5669 5668 5665 5663 5662 5661 5661 5661 5661 5660 5660 5659 5659 5659 5659 5658 5658
5631 5629 5624 5621 5619 5627 5648 5662 5665 5645 5645 5661 5665 5666 5667 5664 5666 5671 5673 5672 5672 5672 5671 5670 5668 5666 5664 5664 5662 5660 5658 5656 5657 5658 5657 5656 5656 5655 5656 5655 5655 5654 5654 5653
5619 5615 5614 5613 5611 5618 5645 5649 5642 5640 5650 5655 5658 5661 5662 5663 5665 5666 5666 5664 5664 5663 5664 5663 5660 5659 5659 5659 5657 5655 5652 5653 5653 5653 5651 5651 5651 5651 5652 5650 5650 5650 5648 5647
5615 5614 5612 5612 5615 5627 5636 5639 5642 5644 5645 5650 5652 5655 5656 5655 5656 5657 5656 5656 5656 5657 5655 5655 5653 5652 5652 5652 5651 5648 5648 5648 5648 5647 5646 5645 5646 5646 5646 5645 5645 5644 5643 5642
5612 5616 5611 5610 5617 5624 5630 5634 5637 5640 5641 5646 5649 5649 5649 5647 5647 5647 5647 5647 5647 5648 5647 5647 5646 5645 5645 5645 5646 5644 5644 5643 5642 5641 5640 5640 5640 5640 5641 5641 5640 5640 5639 5638
5605 5607 5603 5604 5612 5618 5624 5628 5632 5636 5639 5642 5643 5644 5643 5642 5640 5639 5638 5639 5640 5640 5640 5640 5640 5639 5639 5639 5639 5639 5639 5638 5637 5636 5635 5634 5635 5635 5635 5635 5635 5635 5636 5635
5600 5599 5596 5596 5606 5606 5612 5622 5626 5628 5631 5633 5634 5634 5635 5635 5634 5633 5632 5632 5633 5632 5632 5633 5633 5633 5633 5633 5633 5633 5633 5633 5631 5630 5630 5629 5629 5629 5629 5628 5628 5630 5631 5633